EW8328 Weather Reports


time (UTC)temp
C
wind
direction
speed
KPH
gust
KPH
rain 1hr
cm
rain 24hr
cm
rain mn
cm
humidity
%
barometer
mb
20260831111812 18 259 8.0 19.3 0.00 0.66 0.05 77 1007.7
20260831110812 18 248 9.7 19.3 0.00 0.66 0.05 77 1007.5
20260831105812 18 251 3.2 11.3 0.00 0.66 0.05 83 1007.4
20260831105311 17 281 4.8 14.5 0.00 0.66 0.05 80 1007.4
20260831104813 17 273 3.2 9.7 0.00 0.66 0.05 83 1007.2
20260831104312 17 272 3.2 11.3 0.00 0.66 0.05 83 1007.2
20260831103812 17 240 3.2 8.0 0.00 0.66 0.05 84 1007.2
20260831103313 17 276 1.6 8.0 0.00 0.66 0.05 85 1007.1
20260831102812 17 322 1.6 4.8 0.00 0.66 0.05 85 1007.1
20260831102313 17 306 1.6 4.8 0.00 0.66 0.05 84 1007.1
20260831101812 17 283 3.2 11.3 0.00 0.66 0.05 83 1007.0
20260831101312 17 280 4.8 9.7 0.00 0.66 0.05 84 1007.0
20260831100812 17 248 4.8 12.9 0.00 0.66 0.05 84 1007.0
20260831095812 17 254 4.8 16.1 0.00 0.66 0.05 83 1006.9
20260831095312 17 298 3.2 19.3 0.00 0.66 0.05 84 1006.9
20260831094312 17 321 3.2 8.0 0.00 0.66 0.05 84 1006.7
20260831093812 17 279 1.6 4.8 0.00 0.66 0.05 85 1006.7
20260831093312 17 315 1.6 4.8 0.00 0.66 0.05 86 1006.6
20260831092812 17 262 4.8 11.3 0.00 0.66 0.05 86 1006.5
20260831092312 16 248 1.6 9.7 0.00 0.66 0.05 87 1006.4
20260831090812 16 256 3.2 11.3 0.00 0.66 0.05 88 1006.3
20260831090313 16 250 3.2 9.7 0.00 0.66 0.05 88 1006.2
20260831085813 16 269 4.8 12.9 0.00 0.66 0.05 87 1006.2
20260831085312 16 250 3.2 14.5 0.00 0.66 0.05 89 1006.1
20260831084812 16 297 1.6 8.0 0.00 0.66 0.05 90 1006.0
20260831084312 15 263 1.6 11.3 0.00 0.66 0.05 90 1006.0
20260831083812 15 263 3.2 9.7 0.00 0.66 0.05 91 1005.8
20260831083311 15 245 4.8 9.7 0.00 0.66 0.05 90 1005.8
20260831082812 15 254 6.4 11.3 0.00 0.66 0.05 91 1005.7
20260831082312 15 242 3.2 8.0 0.00 0.66 0.05 92 1005.7
20260831081311 15 252 4.8 11.3 0.00 0.66 0.05 92 1005.4
20260831080811 15 248 3.2 9.7 0.00 0.66 0.05 94 1005.3
20260831080311 15 255 4.8 11.3 0.00 0.66 0.05 93 1005.2
20260831075812 14 267 1.6 8.0 0.00 0.66 0.05 94 1005.2
20260831075312 14 254 1.6 8.0 0.00 0.66 0.05 95 1005.1
20260831074812 14 289 1.6 9.7 0.00 0.66 0.05 95 1005.1
20260831074312 14 300 1.6 9.7 0.00 0.66 0.05 95 1005.0
20260831073812 14 268 1.6 8.0 0.00 0.66 0.05 96 1004.9
20260831073312 14 258 3.2 9.7 0.00 0.66 0.05 95 1004.8
20260831072812 14 273 3.2 4.8 0.00 0.66 0.05 95 1004.8
20260831072312 14 246 1.6 4.8 0.00 0.66 0.05 96 1004.7
20260831071812 13 286 3.2 9.7 0.00 0.66 0.05 96 1004.7
20260831071311 13 256 3.2 8.0 0.00 0.66 0.05 96 1004.6
20260831070812 13 247 3.2 9.7 0.00 0.66 0.05 96 1004.5
20260831070311 13 325 3.2 4.8 0.00 0.66 0.05 96 1004.5
20260831065812 13 288 1.6 4.8 0.00 0.66 0.05 96 1004.4
20260831065311 13 300 1.6 4.8 0.00 0.66 0.05 96 1004.3
20260831064812 13 270 3.2 4.8 0.00 0.66 0.05 96 1004.3
20260831064312 13 282 1.6 4.8 0.00 0.66 0.05 96 1004.2
20260831063812 13 260 1.6 4.8 0.00 0.66 0.05 96 1004.2
20260831063313 13 302 3.2 12.9 0.00 0.66 0.05 96 1004.1
20260831062811 13 276 3.2 9.7 0.00 0.66 0.05 96 1003.9
20260831062312 13 256 4.8 11.3 0.00 0.66 0.05 96 1003.9
20260831061812 13 275 3.2 11.3 0.00 0.66 0.05 96 1003.8
20260831061312 13 258 3.2 8.0 0.00 0.66 0.05 96 1003.7
20260831060812 13 262 4.8 9.7 0.00 0.66 0.05 96 1003.6
20260831055813 13 252 1.6 4.8 0.00 0.66 0.05 96 1003.5
20260831055311 13 252 3.2 8.0 0.00 0.66 0.05 96 1003.4
20260831054812 13 246 3.2 8.0 0.00 0.66 0.05 96 1003.3
20260831054312 13 232 1.6 4.8 0.00 0.66 0.05 96 1003.2
20260831053312 13 225 1.6 4.8 0.00 0.66 0.05 96 1003.1
20260831051811 13 254 3.2 8.0 0.00 0.66 0.05 96 1002.9
20260831051311 13 257 1.6 4.8 0.00 0.66 0.05 96 1002.8
20260831050812 13 244 3.2 4.8 0.00 0.66 0.05 96 1002.6
20260831050311 13 256 3.2 8.0 0.00 0.66 0.05 96 1002.6
20260831045811 13 235 1.6 4.8 0.00 0.66 0.05 96 1002.5
20260831045312 13 236 3.2 8.0 0.00 0.66 0.05 96 1002.5
20260831044812 13 245 3.2 8.0 0.00 0.66 0.05 96 1002.4
20260831044312 13 250 1.6 9.7 0.00 0.71 0.05 96 1002.4
20260831043811 13 242 1.6 8.0 0.00 0.71 0.05 96 1002.3
20260831043311 13 270 1.6 9.7 0.00 0.81 0.05 96 1002.3
20260831042811 13 266 1.6 3.2 0.00 0.86 0.05 96 1002.2
20260831042312 13 277 1.6 4.8 0.00 0.94 0.05 96 1002.3
20260831041811 13 239 3.2 4.8 0.00 0.99 0.05 96 1002.3
20260831041311 13 249 3.2 4.8 0.00 0.99 0.05 96 1002.3
20260831040812 13 303 1.6 4.8 0.00 1.07 0.05 96 1002.3
20260831040312 13 232 1.6 4.8 0.00 1.09 0.05 96 1002.2
20260831035811 13 257 3.2 4.8 0.00 1.09 0.05 96 1002.2
20260831035311 13 249 1.6 4.8 0.00 1.09 0.05 96 1002.1
20260831034812 13 239 1.6 4.8 0.00 1.12 0.05 96 1002.1
20260831034311 13 81 1.6 4.8 0.00 1.12 0.05 96 1002.1
20260831033811 13 81 0.0 3.2 0.00 1.14 0.05 96 1002.0
20260831032812 13 81 1.6 1.6 0.00 1.17 0.05 96 1002.0
20260831032311 13 81 1.6 3.2 0.00 1.17 0.05 96 1001.9
20260831031811 13 81 1.6 3.2 0.00 1.17 0.05 96 1001.9
20260831031312 13 81 1.6 4.8 0.00 1.17 0.05 96 1001.9
20260831030811 13 81 0.0 3.2 0.00 1.17 0.05 96 1001.8
20260831030311 13 81 0.0 1.6 0.00 1.17 0.05 96 1001.7
20260831025811 13 81 0.0 0.0 0.00 1.17 0.05 96 1001.7
20260831025311 13 81 0.0 1.6 0.00 1.17 0.05 96 1001.7
20260831024812 13 81 1.6 1.6 0.00 1.17 0.05 96 1001.7
20260831024311 13 81 0.0 3.2 0.00 1.17 0.05 96 1001.6
20260831023812 13 81 0.0 1.6 0.00 1.17 0.05 96 1001.6
20260831022812 13 81 0.0 0.0 0.00 1.17 0.05 96 1001.5
20260831022311 13 81 0.0 0.0 0.00 1.17 0.05 96 1001.5
20260831021812 13 81 0.0 0.0 0.00 1.17 0.05 96 1001.5
20260831021311 13 81 0.0 0.0 0.00 1.17 0.05 96 1001.5
20260831020813 13 81 0.0 0.0 0.00 1.17 0.05 96 1001.4
20260831020311 13 81 0.0 0.0 0.00 1.17 0.05 96 1001.4
20260831015312 13 81 0.0 1.6 0.00 1.17 0.05 96 1001.3
20260831014811 13 81 1.6 1.6 0.00 1.17 0.05 96 1001.3
20260831014311 13 81 0.0 1.6 0.00 1.17 0.05 96 1001.3
20260831013811 13 81 0.0 0.0 0.00 1.17 0.05 96 1001.3
20260831013311 13 81 0.0 0.0 0.00 1.17 0.05 96 1001.2
20260831012812 13 81 0.0 1.6 0.00 1.17 0.05 96 1001.3
20260831012311 13 81 0.0 3.2 0.00 1.17 0.05 96 1001.3
20260831011811 13 81 0.0 1.6 0.00 1.17 0.05 96 1001.4
20260831011311 13 81 0.0 3.2 0.00 1.17 0.05 96 1001.4
20260831010812 13 81 1.6 3.2 0.03 1.17 0.05 96 1001.4
20260831010311 13 81 0.0 1.6 0.03 1.17 0.05 96 1001.4
20260831005811 13 81 0.0 0.0 0.03 1.17 0.05 96 1001.4
20260831005311 13 81 0.0 0.0 0.03 1.17 0.05 96 1001.4
20260831004811 13 81 0.0 3.2 0.03 1.17 0.05 96 1001.5
20260831004311 13 81 1.6 3.2 0.03 1.17 0.05 96 1001.5
20260831003811 13 81 0.0 0.0 0.03 1.17 0.05 96 1001.5
20260831003311 13 81 0.0 1.6 0.03 1.17 0.05 96 1001.5
20260831002813 13 81 1.6 1.6 0.03 1.17 0.05 96 1001.4
20260831002311 13 81 0.0 1.6 0.03 1.17 0.05 95 1001.3
20260831001811 13 81 0.0 0.0 0.03 1.17 0.05 96 1001.3
20260831001311 13 81 1.6 27.4 0.05 1.17 0.05 96 1001.3
20260831000311 13 81 0.0 1.6 0.03 1.14 0.03 95 1001.2
20260830235811 13 81 1.6 3.2 0.03 1.14 0.03 95 1001.2
20260830235311 13 81 0.0 1.6 0.03 1.14 0.03 95 1001.2
20260830234812 13 81 1.6 3.2 0.03 1.14 0.03 95 1001.3
20260830234312 13 81 1.6 3.2 0.03 1.14 0.03 95 1001.3
20260830233811 13 81 0.0 1.6 0.03 1.14 0.03 95 1001.4
20260830233311 13 81 1.6 3.2 0.03 1.14 0.03 95 1001.5
20260830232811 13 81 1.6 3.2 0.03 1.14 0.03 95 1001.5
20260830232311 13 81 1.6 3.2 0.03 1.17 0.03 95 1001.5
20260830231812 13 81 1.6 1.6 0.03 1.17 0.03 95 1001.5
20260830230900 13 81 1.6 3.2 0.00 1.14 0.00 95 1001.6
20260830230312 13 81 1.6 1.6 0.00 1.14 0.00 95 1001.7
20260830225813 13 81 0.0 1.6 0.00 1.14 1.14 95 1001.7
20260830225311 13 81 0.0 1.6 0.00 1.14 1.14 95 1001.8
20260830224811 13 81 1.6 3.2 0.00 1.14 1.14 95 1001.8
20260830224311 13 81 1.6 3.2 0.00 1.14 1.14 95 1001.9
20260830223811 13 81 1.6 4.8 0.00 1.14 1.14 95 1001.9
20260830223311 13 98 1.6 4.8 0.00 1.14 1.14 95 1002.1
20260830222811 13 98 1.6 4.8 0.00 1.14 1.14 95 1002.1
20260830222311 13 98 1.6 3.2 0.00 1.14 1.14 95 1002.1
20260830221811 13 98 0.0 1.6 0.00 1.14 1.14 95 1002.1
20260830221311 13 98 0.0 3.2 0.00 1.14 1.14 95 1002.1
20260830220812 13 98 1.6 3.2 0.00 1.14 1.14 94 1002.2
20260830220311 13 98 1.6 1.6 0.00 1.14 1.14 94 1002.2
20260830215811 13 98 1.6 3.2 0.00 1.14 1.14 94 1002.2
20260830214811 13 98 1.6 3.2 0.00 1.14 1.14 94 1002.2
20260830214311 13 98 0.0 3.2 0.00 1.14 1.14 94 1002.1
20260830213311 14 98 1.6 3.2 0.00 1.14 1.14 93 1002.0
20260830212811 14 98 1.6 3.2 0.00 1.14 1.14 93 1002.0
20260830212311 14 98 1.6 3.2 0.00 1.14 1.14 93 1002.0
20260830211811 15 98 0.0 1.6 0.00 1.14 1.14 93 1002.0
20260830211312 15 98 0.0 3.2 0.00 1.14 1.14 93 1002.1
20260830210811 15 98 0.0 4.8 0.00 1.14 1.14 93 1002.1
20260830205811 15 98 0.0 3.2 0.00 1.14 1.14 93 1002.3
20260830204811 15 118 1.6 4.8 0.00 1.14 1.14 93 1002.4
20260830203811 15 138 0.0 1.6 0.00 1.17 1.14 93 1002.4
20260830203311 15 138 0.0 4.8 0.00 1.17 1.14 93 1002.4
20260830201812 15 155 0.0 3.2 0.00 1.17 1.14 93 1002.4
20260830201311 15 155 1.6 1.6 0.00 1.17 1.14 93 1002.4
20260830200811 15 155 0.0 3.2 0.00 1.17 1.14 93 1002.4
20260830200311 15 155 1.6 3.2 0.00 1.17 1.14 93 1002.5
20260830195811 15 155 3.2 8.0 0.00 1.17 1.14 93 1002.4
20260830195312 15 93 1.6 4.8 0.00 1.17 1.14 94 1002.5
20260830194812 15 48 1.6 8.0 0.00 1.17 1.14 94 1002.4
20260830194310 15 178 1.6 4.8 0.00 1.17 1.14 94 1002.5
20260830193811 14 49 1.6 4.8 0.05 1.17 1.14 94 1002.4
20260830193310 14 250 1.6 3.2 0.10 1.17 1.14 94 1002.4
20260830192811 14 250 1.6 3.2 0.15 1.17 1.14 94 1002.4
20260830192311 14 250 1.6 3.2 0.15 1.17 1.14 93 1002.4
20260830191811 14 250 0.0 3.2 0.20 1.17 1.14 93 1002.4
20260830191310 14 250 0.0 3.2 0.23 1.17 1.14 93 1002.3
20260830190811 14 250 0.0 1.6 0.30 1.17 1.14 93 1002.1
20260830190311 14 250 0.0 3.2 0.46 1.17 1.14 93 1002.1
20260830185811 14 250 0.0 3.2 0.48 1.17 1.14 92 1002.0
20260830185311 14 250 1.6 3.2 0.48 1.17 1.14 92 1002.1
20260830184811 15 250 1.6 3.2 0.48 1.17 1.14 92 1002.2
20260830184311 15 250 0.0 4.8 0.51 1.17 1.14 92 1002.4
20260830183813 15 154 1.6 4.8 0.51 1.12 1.09 91 1002.5
20260830183311 15 153 1.6 4.8 0.46 1.07 1.04 91 1002.7
20260830181811 15 174 8.0 12.9 0.36 0.97 0.94 88 1002.7
20260830181311 15 155 8.0 19.3 0.33 0.94 0.91 87 1002.8
20260830175310 17 119 1.6 4.8 0.08 0.69 0.66 88 1002.4
20260830174812 17 119 1.6 4.8 0.08 0.69 0.66 87 1002.4
20260830174311 17 134 1.6 4.8 0.05 0.66 0.64 86 1002.7
20260830173811 17 168 0.0 3.2 0.00 0.61 0.58 86 1002.7
20260830173311 17 168 0.0 1.6 0.00 0.61 0.58 86 1002.6
20260830172811 17 168 0.0 1.6 0.00 0.61 0.58 86 1002.5
20260830172311 17 168 0.0 1.6 0.00 0.61 0.58 86 1002.7
20260830170811 17 168 1.6 4.8 0.00 0.61 0.58 84 1002.9
20260830170311 17 168 0.0 4.8 0.00 0.61 0.58 83 1002.9
20260830165311 17 117 1.6 8.0 0.00 0.61 0.58 84 1002.8
20260830164811 17 108 3.2 8.0 0.00 0.61 0.58 84 1002.8
20260830164311 17 128 1.6 4.8 0.00 0.61 0.58 84 1002.8
20260830163811 17 128 1.6 4.8 0.00 0.61 0.58 85 1002.8
20260830163311 17 128 1.6 4.8 0.00 0.61 0.58 84 1002.8
20260830162811 17 167 0.0 3.2 0.00 0.61 0.58 85 1002.9
20260830161811 17 167 3.2 8.0 0.00 0.61 0.58 86 1003.0
20260830161311 17 167 3.2 4.8 0.00 0.61 0.58 86 1003.0
20260830160811 17 167 3.2 4.8 0.00 0.61 0.58 85 1003.0
20260830160311 17 167 0.0 4.8 0.00 0.61 0.58 86 1003.0
20260830155811 17 167 1.6 4.8 0.00 0.61 0.58 86 1003.0
20260830154811 17 168 3.2 4.8 0.00 0.61 0.58 85 1003.2
20260830154311 17 103 1.6 4.8 0.00 0.61 0.58 87 1003.3
20260830153812 17 103 1.6 4.8 0.03 0.61 0.58 88 1003.4
20260830152811 16 103 3.2 8.0 0.05 0.61 0.58 89 1003.4
20260830151311 16 132 1.6 4.8 0.05 0.61 0.58 89 1003.6
20260830150811 16 175 3.2 4.8 0.05 0.61 0.58 90 1003.6
20260830145811 16 175 3.2 4.8 0.05 0.61 0.58 89 1003.6
20260830145311 16 135 3.2 9.7 0.05 0.61 0.58 89 1003.7
20260830144810 16 164 4.8 9.7 0.05 0.61 0.58 88 1003.9
20260830143311 17 203 6.4 14.5 0.03 0.56 0.53 86 1004.3
20260830142811 17 218 11.3 19.3 0.00 0.53 0.51 84 1004.3
20260830141812 17 170 9.7 14.5 0.00 0.53 0.51 83 1004.1
20260830141310 17 201 9.7 19.3 0.00 0.53 0.51 84 1004.2
20260830140810 17 204 8.0 12.9 0.00 0.53 0.51 84 1004.2
20260830140311 17 210 11.3 19.3 0.00 0.53 0.51 82 1004.3
20260830135811 18 214 9.7 19.3 0.00 0.53 0.51 79 1004.3
20260830135312 18 213 12.9 22.5 0.00 0.53 0.51 76 1004.3
20260830134811 18 176 12.9 20.9 0.00 0.53 0.51 73 1004.2
20260830134310 19 174 11.3 19.3 0.00 0.53 0.51 71 1004.1
20260830133811 19 163 8.0 16.1 0.00 0.53 0.51 71 1004.1
20260830133310 19 140 9.7 16.1 0.00 0.53 0.51 69 1004.0
20260830132811 20 189 9.7 16.1 0.00 0.53 0.51 69 1004.1
20260830132310 20 148 6.4 14.5 0.00 0.53 0.51 69 1004.0
20260830131811 20 156 8.0 16.1 0.00 0.53 0.51 69 1004.2
20260830131311 20 179 6.4 14.5 0.00 0.53 0.51 68 1004.3
20260830130811 20 141 8.0 16.1 0.00 0.53 0.51 67 1004.2
20260830125810 20 150 8.0 12.9 0.00 0.53 0.51 67 1004.2
20260830125310 20 154 8.0 14.5 0.00 0.53 0.51 68 1004.3
20260830124810 20 153 6.4 11.3 0.00 0.53 0.51 67 1004.3
20260830124311 20 157 9.7 19.3 0.00 0.53 0.51 67 1004.4
20260830123810 20 136 8.0 19.3 0.00 0.53 0.51 67 1004.5
20260830123312 20 188 4.8 14.5 0.00 0.53 0.51 68 1004.6
20260830122811 20 159 6.4 14.5 0.00 0.53 0.51 68 1004.5
20260830122311 20 153 8.0 14.5 0.00 0.53 0.51 68 1004.6
20260830121311 19 171 4.8 11.3 0.00 0.53 0.51 71 1004.7
20260830120811 19 192 4.8 12.9 0.00 0.53 0.51 70 1004.7
20260830115811 19 151 6.4 12.9 0.00 0.53 0.51 70 1004.7
20260830114811 20 205 6.4 14.5 0.00 0.53 0.51 70 1004.7
20260830114311 20 215 6.4 11.3 0.00 0.53 0.51 69 1004.8
20260830113810 20 177 6.4 12.9 0.00 0.53 0.51 70 1004.8
20260830113311 20 168 8.0 14.5 0.00 0.53 0.51 70 1004.9
20260830112310 19 222 6.4 16.1 0.00 0.53 0.51 70 1005.0